Dewpoint
62 61 62 60 62 61 60 56 52 51 51 54 53 58 60 60 60 62 62 62 65 64 64 63 63 64 64 64 64 64 64 64 64 64 64 64 62 61
63 61 62 61 60 62 59 59 56 53 51 55 55 57 58 59 61 63 60 64 64 64 64 63 63 63 64 64 64 64 64 64 64 64 64 64 64 63
64 62 62 61 60 61 61 60 59 58 54 55 58 57 59 57 57 59 61 61 62 64 64 64 63 63 63 63 63 64 64 64 63 63 64 64 65 65
62 62 61 62 63 61 61 62 61 60 58 56 58 59 59 59 59 60 60 61 61 62 62 62 62 62 62 62 62 62 61 61 62 62 63 63 63 63
63 62 61 61 60 61 62 61 62 62 61 59 58 60 60 60 59 59 58 59 59 63 62 61 61 60 60 60 59 58 57 57 58 58 59 60 61 61
64 63 63 63 63 62 63 63 63 62 62 61 61 60 59 59 59 58 58 57 57 58 61 60 61 61 60 59 60 60 57 56 55 55 56 56 57 58
64 64 64 65 65 63 64 62 61 62 62 61 59 57 56 56 56 56 57 57 58 58 57 57 55 54 54 57 58 61 60 58 56 55 55 54 55 55
63 63 64 66 65 64 64 63 63 62 61 60 57 56 56 56 56 56 56 55 53 57 55 54 51 52 53 53 56 58 57 56 56 55 54 53 54 54
63 64 64 65 65 64 63 63 62 62 62 60 58 57 56 56 56 56 55 55 54 56 53 51 52 52 53 54 57 56 55 53 53 52 52 53 53 53
64 64 65 65 64 63 63 63 62 62 63 62 60 59 58 59 58 58 57 55 53 54 54 51 52 52 51 50 53 54 52 51 51 52 53 53 52 51
64 65 66 65 61 60 63 60 60 61 61 59 59 59 59 58 59 57 55 52 51 50 51 51 51 48 45 43 41 49 50 49 52 52 53 53 51 51
64 64 61 62 59 58 62 59 59 59 58 56 56 56 57 56 56 56 54 51 49 49 52 49 45 43 40 38 38 42 46 51 51 51 52 52 51 53
61 63 63 58 56 55 57 59 59 57 55 52 52 53 53 52 52 54 54 53 51 50 53 47 44 43 42 42 45 48 51 52 52 52 51 51 50 51
62 62 60 54 52 55 57 56 52 52 51 51 50 50 50 48 46 47 47 50 53 51 49 48 47 45 43 41 43 49 50 51 52 52 53 52 51 51
63 59 52 50 52 54 53 52 52 50 49 49 49 49 49 48 45 43 43 41 39 38 40 40 45 41 45 47 49 49 49 51 52 52 53 53 51 50
58 55 55 55 53 53 52 52 51 50 50 50 49 50 49 42 41 42 39 38 35 34 37 40 43 47 50 50 49 49 49 48 50 51 51 51 51 50
54 53 52 52 51 51 51 51 50 50 51 50 50 48 41 40 40 39 39 36 35 36 38 38 41 46 50 50 48 48 49 49 50 50 52 50 48 49
54 52 51 51 51 51 51 51 52 53 51 51 46 42 39 40 38 38 37 36 35 36 36 37 40 45 46 47 51 48 48 49 50 51 50 47 46 47
55 54 54 53 53 53 53 52 52 51 48 43 42 40 37 36 37 37 35 35 34 35 34 36 39 43 42 43 46 51 48 49 49 48 46 47 46 44
54 55 54 52 51 49 49 46 45 41 38 35 34 33 33 34 37 34 34 33 35 35 35 35 42 44 44 44 44 47 48 47 47 45 45 45 45 46
51 51 50 49 48 46 45 44 42 40 37 34 32 33 37 38 34 33 33 38 38 34 34 34 36 46 47 46 44 44 46 47 46 46 45 44 41 42
50 50 49 47 47 46 45 43 41 38 37 36 35 35 36 36 32 33 35 34 33 35 35 35 35 42 45 43 42 42 43 44 45 46 45 43 41 38
51 49 48 47 47 47 45 43 39 37 34 33 35 35 33 32 33 35 33 33 35 35 32 32 33 43 43 42 43 41 41 42 42 41 41 43 41 41
Lifted_Index
0 1 1 2 2 2 3 3 4 4 4 4 3 2 2 1 1 1 2 2 2 2 2 2 2 3 4 4 4 4 4 5 5 5 5 5 5 5
0 1 1 2 2 2 2 3 3 4 4 3 3 2 2 2 1 1 1 1 1 1 1 1 2 2 3 3 3 4 4 4 5 5 5 5 5 5
-0 0 1 2 2 2 2 2 3 3 3 3 3 2 2 2 2 1 1 1 1 1 1 1 1 1 2 2 3 3 4 4 4 5 5 5 4 4
-0 -0 1 1 2 2 2 2 2 2 2 2 2 2 2 2 2 1 1 1 1 1 1 1 1 1 1 2 3 3 4 4 4 5 5 5 5 5
-0 -0 1 1 2 2 2 2 2 2 2 2 2 2 2 2 2 2 1 1 1 1 1 1 1 1 2 2 2 3 4 5 5 5 5 5 6 6
-0 -0 0 1 1 2 2 2 1 1 1 2 2 2 2 2 2 2 2 2 1 1 2 2 2 2 3 3 3 3 4 5 5 6 6 6 6 6
-1 -1 -1 -0 0 1 1 1 0 1 1 1 2 2 2 2 2 2 2 1 1 1 2 2 3 4 4 4 4 4 4 5 5 6 6 6 6 6
-1 -1 -1 -1 -0 -0 -0 -0 -0 0 0 1 1 1 2 2 2 2 2 1 1 1 2 3 4 5 5 5 4 5 5 6 6 6 6 6 6 6
-1 -1 -1 -1 -1 -1 -0 -0 -0 -0 -0 0 1 1 1 1 1 1 1 0 0 1 2 3 4 4 4 4 4 5 6 6 6 6 5 5 5 5
-1 -1 -1 -1 -1 -1 -0 -0 -0 -0 -0 -0 -0 0 0 -0 -0 -0 -0 -0 0 0 2 3 3 3 4 4 5 6 6 6 5 5 4 4 4 4
-2 -2 -2 -2 -1 -1 -0 0 0 -0 -0 -0 -0 -0 -0 -0 -0 -0 -0 0 0 1 2 3 3 4 5 5 6 7 6 5 4 4 4 4 4 4
-1 -2 -1 -1 -1 -0 0 0 0 -0 -0 -0 -0 0 0 1 1 1 1 1 1 2 2 3 4 5 6 7 7 6 5 4 3 3 3 4 4 4
-1 -1 -1 -0 -0 -0 -0 -0 -0 -0 0 0 1 1 2 2 2 2 2 2 2 3 4 5 6 7 8 7 6 5 4 3 3 3 4 4 4 5
-1 -0 -0 0 0 0 -0 -0 0 0 1 2 2 3 3 3 3 3 3 4 4 5 6 7 7 7 7 6 5 4 3 3 3 3 4 4 5 5
-1 -0 0 0 0 0 0 0 1 2 2 3 3 4 4 4 4 4 4 5 6 7 8 8 8 7 6 5 4 4 4 3 3 4 4 5 5 6
-0 -0 0 1 1 1 1 1 2 2 3 3 3 3 4 4 4 5 5 6 7 8 8 8 8 6 5 4 4 4 4 4 4 4 5 6 6 7
-0 0 1 1 2 2 2 2 2 2 2 3 3 3 4 4 5 6 7 8 8 8 8 8 7 6 5 4 4 4 5 4 5 5 6 7 7 8
1 1 2 2 2 2 2 2 1 2 2 3 3 4 5 5 6 7 8 8 8 8 8 8 7 6 5 4 4 5 5 5 6 6 7 7 8 8
2 2 2 2 2 3 2 2 2 2 3 4 4 5 6 7 7 8 9 9 9 8 8 8 7 6 5 5 5 5 6 6 7 7 8 8 9 10
2 2 2 2 3 3 3 3 3 4 5 5 6 7 8 9 9 10 10 9 9 8 8 8 8 7 6 5 5 5 6 7 8 8 9 9 10 12
3 3 3 3 4 4 3 3 4 4 5 6 7 9 10 10 11 11 10 10 9 9 9 8 8 7 6 5 5 6 7 8 8 9 10 11 11 12
4 4 4 4 4 4 4 4 4 5 6 8 9 10 11 11 11 11 10 10 9 9 9 9 8 6 5 5 6 7 8 8 9 10 11 13 13 12
4 4 4 4 4 3 4 4 4 5 6 8 10 11 11 11 11 11 10 10 9 9 9 8 7 5 4 5 6 8 8 8 9 9 11 14 15 14